Time,TemperatureF,DewpointF,PressureIn,WindDirection,WindDirectionDegrees,WindSpeedMPH,WindSpeedGustMPH,Humidity,HourlyPrecipIn,Conditions,Clouds,dailyrainin,SoftwareType,DateUTC
2013-08-20 00:01:00,66.5,63.2,30.02,NE,45,0.0,0.0,89,0.00,,,0.00,WUHU216DAVISVP2,2013-08-20 05:01:00,
2013-08-20 00:06:00,66.3,63.3,30.01,NE,46,0.0,0.0,90,0.00,,,0.00,WUHU216DAVISVP2,2013-08-20 05:06:00,
2013-08-20 00:11:00,66.1,63.1,30.01,NE,45,0.0,0.0,90,0.00,,,0.00,WUHU216DAVISVP2,2013-08-20 05:11:00,
2013-08-20 00:16:00,65.9,62.9,30.02,NE,46,0.0,0.0,90,0.00,,,0.00,WUHU216DAVISVP2,2013-08-20 05:16:00,
2013-08-20 00:21:00,65.9,63.2,30.01,NE,45,0.0,0.0,91,0.00,,,0.00,WUHU216DAVISVP2,2013-08-20 05:21:00,
2013-08-20 00:26:00,65.7,63.0,30.01,NE,45,0.0,0.0,91,0.00,,,0.00,WUHU216DAVISVP2,2013-08-20 05:26:00,
2013-08-20 00:31:00,65.7,63.0,30.01,NE,45,0.0,0.0,91,0.00,,,0.00,WUHU216DAVISVP2,2013-08-20 05:31:00,
2013-08-20 00:36:00,65.6,62.9,30.01,NE,45,0.0,0.0,91,0.00,,,0.00,WUHU216DAVISVP2,2013-08-20 05:36:00,
2013-08-20 00:41:00,65.5,62.8,30.01,NE,45,0.0,0.0,91,0.00,,,0.00,WUHU216DAVISVP2,2013-08-20 05:41:00,
2013-08-20 00:46:00,65.5,62.8,30.01,NE,45,0.0,0.0,91,0.00,,,0.00,WUHU216DAVISVP2,2013-08-20 05:46:00,
2013-08-20 00:51:00,65.5,62.8,30.01,NE,45,0.0,0.0,91,0.00,,,0.00,WUHU216DAVISVP2,2013-08-20 05:51:00,
2013-08-20 00:56:00,65.4,62.7,30.01,NE,45,0.0,0.0,91,0.00,,,0.00,WUHU216DAVISVP2,2013-08-20 05:56:00,
2013-08-20 01:01:00,65.3,62.6,30.01,NE,45,0.0,0.0,91,0.00,,,0.00,WUHU216DAVISVP2,2013-08-20 06:01:00,
2013-08-20 01:06:00,65.2,62.5,30.01,NE,45,0.0,0.0,91,0.00,,,0.00,WUHU216DAVISVP2,2013-08-20 06:06:00,
2013-08-20 01:11:00,65.0,62.6,30.01,NE,45,0.0,0.0,92,0.00,,,0.00,WUHU216DAVISVP2,2013-08-20 06:11:00,
2013-08-20 01:16:00,64.9,62.5,30.01,NE,45,0.0,0.0,92,0.00,,,0.00,WUHU216DAVISVP2,2013-08-20 06:16:00,
2013-08-20 01:21:00,64.8,62.4,30.01,NE,46,0.0,0.0,92,0.00,,,0.00,WUHU216DAVISVP2,2013-08-20 06:21:00,
2013-08-20 01:26:00,64.8,62.4,30.01,NE,45,0.0,0.0,92,0.00,,,0.00,WUHU216DAVISVP2,2013-08-20 06:26:00,
2013-08-20 01:31:00,64.7,62.3,30.01,NE,45,0.0,0.0,92,0.00,,,0.00,WUHU216DAVISVP2,2013-08-20 06:31:00,
2013-08-20 01:36:00,64.6,62.5,30.01,NE,45,0.0,0.0,93,0.00,,,0.00,WUHU216DAVISVP2,2013-08-20 06:36:00,
2013-08-20 01:41:00,64.6,62.5,30.01,NE,45,0.0,0.0,93,0.00,,,0.00,WUHU216DAVISVP2,2013-08-20 06:41:00,
2013-08-20 01:46:00,64.5,62.4,30.01,NE,45,0.0,1.0,93,0.00,,,0.00,WUHU216DAVISVP2,2013-08-20 06:46:00,
2013-08-20 01:51:00,64.4,62.3,30.01,NE,45,0.0,1.0,93,0.00,,,0.00,WUHU216DAVISVP2,2013-08-20 06:51:00,
2013-08-20 01:56:00,64.3,61.9,30.01,NE,45,0.0,1.0,92,0.00,,,0.00,WUHU216DAVISVP2,2013-08-20 06:56:00,
2013-08-20 02:01:00,64.3,62.2,30.01,NE,45,0.0,1.0,93,0.00,,,0.00,WUHU216DAVISVP2,2013-08-20 07:01:00,
2013-08-20 02:06:00,64.3,62.2,30.00,NE,45,0.0,0.0,93,0.00,,,0.00,WUHU216DAVISVP2,2013-08-20 07:06:00,
2013-08-20 02:11:00,64.3,62.2,30.00,NE,45,0.0,0.0,93,0.00,,,0.00,WUHU216DAVISVP2,2013-08-20 07:11:00,
2013-08-20 02:16:00,64.2,62.1,30.00,NE,45,0.0,0.0,93,0.00,,,0.00,WUHU216DAVISVP2,2013-08-20 07:16:00,
2013-08-20 02:21:00,64.1,62.0,30.00,NE,45,0.0,0.0,93,0.00,,,0.00,WUHU216DAVISVP2,2013-08-20 07:21:00,
2013-08-20 02:26:00,63.9,61.8,30.00,NE,45,0.0,0.0,93,0.00,,,0.00,WUHU216DAVISVP2,2013-08-20 07:26:00,
2013-08-20 02:31:00,63.7,61.6,30.00,NE,45,0.0,0.0,93,0.00,,,0.00,WUHU216DAVISVP2,2013-08-20 07:31:00,
2013-08-20 02:36:00,63.6,61.5,30.00,NE,45,0.0,0.0,93,0.00,,,0.00,WUHU216DAVISVP2,2013-08-20 07:36:00,
2013-08-20 02:41:00,63.5,61.7,30.00,NE,45,0.0,0.0,94,0.00,,,0.00,WUHU216DAVISVP2,2013-08-20 07:41:00,
2013-08-20 02:46:00,63.6,61.8,30.00,NE,45,0.0,0.0,94,0.00,,,0.00,WUHU216DAVISVP2,2013-08-20 07:46:00,
2013-08-20 02:51:00,63.6,61.8,30.00,NE,45,0.0,0.0,94,0.00,,,0.00,WUHU216DAVISVP2,2013-08-20 07:51:00,
2013-08-20 02:56:00,63.5,61.7,30.00,NE,45,0.0,0.0,94,0.00,,,0.00,WUHU216DAVISVP2,2013-08-20 07:56:00,
2013-08-20 03:01:00,63.5,61.7,30.00,NE,45,0.0,0.0,94,0.00,,,0.00,WUHU216DAVISVP2,2013-08-20 08:01:00,
2013-08-20 03:06:00,63.5,61.7,30.00,NE,45,0.0,0.0,94,0.00,,,0.00,WUHU216DAVISVP2,2013-08-20 08:06:00,
2013-08-20 03:11:00,63.4,61.6,30.00,NE,45,0.0,0.0,94,0.00,,,0.00,WUHU216DAVISVP2,2013-08-20 08:11:00,
2013-08-20 03:16:00,63.5,61.7,30.00,NE,45,0.0,0.0,94,0.00,,,0.00,WUHU216DAVISVP2,2013-08-20 08:16:00,
2013-08-20 03:21:00,63.5,61.7,30.00,NE,45,0.0,0.0,94,0.00,,,0.00,WUHU216DAVISVP2,2013-08-20 08:21:00,
2013-08-20 03:26:00,63.4,61.6,30.00,NE,45,0.0,0.0,94,0.00,,,0.00,WUHU216DAVISVP2,2013-08-20 08:26:00,
2013-08-20 03:31:00,63.3,61.5,30.00,NE,45,0.0,0.0,94,0.00,,,0.00,WUHU216DAVISVP2,2013-08-20 08:31:00,
2013-08-20 03:36:00,63.3,61.5,30.00,NE,45,0.0,2.0,94,0.00,,,0.00,WUHU216DAVISVP2,2013-08-20 08:36:00,
2013-08-20 03:41:00,63.3,61.5,30.00,NE,45,0.0,2.0,94,0.00,,,0.00,WUHU216DAVISVP2,2013-08-20 08:41:00,
2013-08-20 03:46:00,63.4,61.6,30.00,NE,45,0.0,2.0,94,0.00,,,0.00,WUHU216DAVISVP2,2013-08-20 08:46:00,
2013-08-20 03:51:00,63.4,61.6,30.01,NE,45,0.0,2.0,94,0.00,,,0.00,WUHU216DAVISVP2,2013-08-20 08:51:00,
2013-08-20 03:56:00,63.4,61.6,30.01,NE,45,0.0,0.0,94,0.00,,,0.00,WUHU216DAVISVP2,2013-08-20 08:56:00,
2013-08-20 04:01:00,63.3,61.5,30.01,NE,45,0.0,0.0,94,0.00,,,0.00,WUHU216DAVISVP2,2013-08-20 09:01:00,
2013-08-20 04:06:00,63.4,61.6,30.00,NE,45,0.0,0.0,94,0.00,,,0.00,WUHU216DAVISVP2,2013-08-20 09:06:00,
2013-08-20 04:11:00,63.3,61.5,30.00,NE,45,0.0,0.0,94,0.00,,,0.00,WUHU216DAVISVP2,2013-08-20 09:11:00,
2013-08-20 04:15:00,63.3,61.5,30.01,NE,45,0.0,0.0,94,0.00,,,0.00,WUHU216DAVISVP2,2013-08-20 09:15:00,
2013-08-20 04:20:00,63.2,61.4,30.01,NE,45,0.0,0.0,94,0.00,,,0.00,WUHU216DAVISVP2,2013-08-20 09:20:00,
2013-08-20 04:25:00,63.2,61.4,30.01,NE,45,0.0,0.0,94,0.00,,,0.00,WUHU216DAVISVP2,2013-08-20 09:25:00,
2013-08-20 04:30:00,63.1,61.3,30.01,NE,45,0.0,0.0,94,0.00,,,0.00,WUHU216DAVISVP2,2013-08-20 09:30:00,
2013-08-20 04:35:00,63.1,61.3,30.00,NE,45,0.0,0.0,94,0.00,,,0.00,WUHU216DAVISVP2,2013-08-20 09:35:00,
2013-08-20 04:40:00,63.1,61.4,30.00,NE,45,0.0,0.0,94,0.00,,,0.00,WUHU216DAVISVP2,2013-08-20 09:40:00,
2013-08-20 04:45:00,63.1,61.3,30.01,NE,46,0.0,0.0,94,0.00,,,0.00,WUHU216DAVISVP2,2013-08-20 09:45:00,
2013-08-20 04:50:00,63.0,61.2,30.01,NE,45,0.0,0.0,94,0.00,,,0.00,WUHU216DAVISVP2,2013-08-20 09:50:00,
2013-08-20 04:55:00,62.9,61.1,30.01,NE,46,0.0,0.0,94,0.00,,,0.00,WUHU216DAVISVP2,2013-08-20 09:55:00,
2013-08-20 05:00:00,62.9,61.1,30.01,NE,45,0.0,0.0,94,0.00,,,0.00,WUHU216DAVISVP2,2013-08-20 10:00:00,
2013-08-20 05:05:00,62.8,61.0,30.01,NE,45,0.0,0.0,94,0.00,,,0.00,WUHU216DAVISVP2,2013-08-20 10:05:00,
2013-08-20 05:10:00,62.8,61.3,30.01,NE,45,0.0,0.0,95,0.00,,,0.00,WUHU216DAVISVP2,2013-08-20 10:10:00,
2013-08-20 05:15:00,62.7,61.0,30.01,NE,45,0.0,0.0,94,0.00,,,0.00,WUHU216DAVISVP2,2013-08-20 10:15:00,
2013-08-20 05:20:00,62.7,60.9,30.01,NE,45,0.0,0.0,94,0.00,,,0.00,WUHU216DAVISVP2,2013-08-20 10:20:00,
2013-08-20 05:25:00,62.5,61.0,30.01,NE,45,0.0,0.0,95,0.00,,,0.00,WUHU216DAVISVP2,2013-08-20 10:25:00,
2013-08-20 05:30:00,62.4,61.0,30.01,NE,45,0.0,0.0,95,0.00,,,0.00,WUHU216DAVISVP2,2013-08-20 10:30:00,
2013-08-20 05:35:00,62.5,61.0,30.01,NE,45,0.0,0.0,95,0.00,,,0.00,WUHU216DAVISVP2,2013-08-20 10:35:00,
2013-08-20 05:40:00,62.4,60.9,30.01,NE,45,0.0,3.0,95,0.00,,,0.00,WUHU216DAVISVP2,2013-08-20 10:40:00,
2013-08-20 05:45:00,62.4,61.0,30.01,NE,45,0.0,3.0,95,0.00,,,0.00,WUHU216DAVISVP2,2013-08-20 10:45:00,
2013-08-20 05:50:00,62.6,61.1,30.01,NE,45,0.0,3.0,95,0.00,,,0.00,WUHU216DAVISVP2,2013-08-20 10:50:00,
2013-08-20 05:55:00,62.5,61.0,30.01,NE,45,0.0,3.0,95,0.00,,,0.00,WUHU216DAVISVP2,2013-08-20 10:55:00,
2013-08-20 06:00:00,62.5,61.0,30.01,NE,45,0.0,1.0,95,0.00,,,0.00,WUHU216DAVISVP2,2013-08-20 11:00:00,
2013-08-20 06:05:00,62.5,61.0,30.02,NE,45,0.0,0.0,95,0.00,,,0.00,WUHU216DAVISVP2,2013-08-20 11:05:00,
2013-08-20 06:10:00,62.4,60.9,30.02,NE,45,0.0,0.0,95,0.00,,,0.00,WUHU216DAVISVP2,2013-08-20 11:10:00,
2013-08-20 06:15:00,62.3,60.9,30.02,NE,45,0.0,0.0,95,0.00,,,0.00,WUHU216DAVISVP2,2013-08-20 11:15:00,
2013-08-20 06:20:00,62.3,60.8,30.02,NE,45,0.0,0.0,95,0.00,,,0.00,WUHU216DAVISVP2,2013-08-20 11:20:00,
2013-08-20 06:25:00,62.2,60.7,30.02,NE,45,0.0,0.0,95,0.00,,,0.00,WUHU216DAVISVP2,2013-08-20 11:25:00,
2013-08-20 06:30:00,62.2,60.8,30.02,NE,45,0.0,0.0,95,0.00,,,0.00,WUHU216DAVISVP2,2013-08-20 11:30:00,
2013-08-20 06:35:00,62.4,60.9,30.02,NE,45,1.0,2.0,95,0.00,,,0.00,WUHU216DAVISVP2,2013-08-20 11:35:00,
2013-08-20 06:40:00,62.4,60.9,30.02,NE,45,0.0,3.0,95,0.00,,,0.00,WUHU216DAVISVP2,2013-08-20 11:40:00,
2013-08-20 06:45:00,62.5,61.3,30.02,NE,45,1.0,3.0,96,0.00,,,0.00,WUHU216DAVISVP2,2013-08-20 11:45:00,
2013-08-20 06:50:00,62.6,61.1,30.03,NE,45,1.0,3.0,95,0.00,,,0.00,WUHU216DAVISVP2,2013-08-20 11:50:00,
2013-08-20 06:55:00,62.5,61.0,30.03,NE,45,0.0,2.0,95,0.00,,,0.00,WUHU216DAVISVP2,2013-08-20 11:55:00,
2013-08-20 07:00:00,62.6,61.1,30.03,NE,45,0.0,2.0,95,0.00,,,0.00,WUHU216DAVISVP2,2013-08-20 12:00:00,
2013-08-20 07:05:00,62.6,61.1,30.03,NE,45,0.0,2.0,95,0.00,,,0.00,WUHU216DAVISVP2,2013-08-20 12:05:00,
2013-08-20 07:10:00,62.7,61.5,30.03,NE,45,1.0,2.0,96,0.00,,,0.00,WUHU216DAVISVP2,2013-08-20 12:10:00,
2013-08-20 07:15:00,62.8,61.6,30.03,NE,45,0.0,2.0,96,0.00,,,0.00,WUHU216DAVISVP2,2013-08-20 12:15:00,
2013-08-20 07:20:00,62.9,61.4,30.03,NE,45,2.0,2.0,95,0.00,,,0.00,WUHU216DAVISVP2,2013-08-20 12:20:00,
2013-08-20 07:25:00,63.1,62.0,30.03,NE,45,0.0,2.0,96,0.00,,,0.00,WUHU216DAVISVP2,2013-08-20 12:25:00,
2013-08-20 07:30:00,63.4,62.2,30.03,NE,45,0.0,2.0,96,0.00,,,0.00,WUHU216DAVISVP2,2013-08-20 12:30:00,
2013-08-20 07:35:00,63.7,62.5,30.03,NE,45,0.0,2.0,96,0.00,,,0.00,WUHU216DAVISVP2,2013-08-20 12:35:00,
2013-08-20 07:40:00,64.1,62.9,30.03,NE,45,1.0,3.0,96,0.00,,,0.00,WUHU216DAVISVP2,2013-08-20 12:40:00,
2013-08-20 07:45:00,64.3,63.1,30.03,NE,45,2.0,3.0,96,0.00,,,0.00,WUHU216DAVISVP2,2013-08-20 12:45:00,
2013-08-20 07:50:00,64.6,63.1,30.03,NE,45,2.0,3.0,95,0.00,,,0.00,WUHU216DAVISVP2,2013-08-20 12:50:00,
2013-08-20 07:55:00,65.0,63.5,30.03,NE,45,3.0,3.0,95,0.00,,,0.00,WUHU216DAVISVP2,2013-08-20 12:55:00,
2013-08-20 08:00:00,65.5,64.0,30.04,NE,45,2.0,3.0,95,0.00,,,0.00,WUHU216DAVISVP2,2013-08-20 13:00:00,
2013-08-20 08:05:00,66.0,64.5,30.04,NE,45,1.0,3.0,95,0.00,,,0.00,WUHU216DAVISVP2,2013-08-20 13:05:00,
2013-08-20 08:10:00,66.5,64.7,30.04,NE,45,2.0,3.0,94,0.00,,,0.00,WUHU216DAVISVP2,2013-08-20 13:10:00,
2013-08-20 08:15:00,66.9,64.8,30.04,NE,45,1.0,3.0,93,0.00,,,0.00,WUHU216DAVISVP2,2013-08-20 13:15:00,
2013-08-20 08:20:00,67.3,64.8,30.05,NE,45,0.0,3.0,92,0.00,,,0.00,WUHU216DAVISVP2,2013-08-20 13:20:00,
2013-08-20 08:25:00,67.7,65.3,30.04,NE,45,0.0,3.0,92,0.00,,,0.00,WUHU216DAVISVP2,2013-08-20 13:25:00,
2013-08-20 08:30:00,68.2,65.5,30.05,NE,36,5.0,5.0,91,0.00,,,0.00,WUHU216DAVISVP2,2013-08-20 13:30:00,
2013-08-20 08:35:00,68.4,65.0,30.05,NNE,30,1.0,5.0,89,0.00,,,0.00,WUHU216DAVISVP2,2013-08-20 13:35:00,
2013-08-20 08:40:00,68.6,65.3,30.05,NNE,15,0.0,6.0,89,0.00,,,0.00,WUHU216DAVISVP2,2013-08-20 13:40:00,
2013-08-20 08:45:00,69.0,65.6,30.05,NNE,15,4.0,6.0,89,0.00,,,0.00,WUHU216DAVISVP2,2013-08-20 13:45:00,
2013-08-20 08:50:00,69.2,65.5,30.05,NNE,15,1.0,6.0,88,0.00,,,0.00,WUHU216DAVISVP2,2013-08-20 13:50:00,
2013-08-20 08:55:00,69.6,65.5,30.05,NNE,15,1.0,6.0,87,0.00,,,0.00,WUHU216DAVISVP2,2013-08-20 13:55:00,
2013-08-20 09:00:00,69.9,65.6,30.05,North,6,3.0,6.0,86,0.00,,,0.00,WUHU216DAVISVP2,2013-08-20 14:00:00,
2013-08-20 09:05:00,70.2,65.5,30.05,North,2,4.0,7.0,85,0.00,,,0.00,WUHU216DAVISVP2,2013-08-20 14:05:00,
2013-08-20 09:10:00,70.3,65.3,30.05,North,357,1.0,7.0,84,0.00,,,0.00,WUHU216DAVISVP2,2013-08-20 14:10:00,
2013-08-20 09:15:00,70.6,65.6,30.05,North,354,4.0,7.0,84,0.00,,,0.00,WUHU216DAVISVP2,2013-08-20 14:15:00,
2013-08-20 09:20:00,70.9,65.6,30.05,North,354,2.0,7.0,83,0.00,,,0.00,WUHU216DAVISVP2,2013-08-20 14:20:00,
2013-08-20 09:25:00,71.3,65.9,30.05,North,354,0.0,6.0,83,0.00,,,0.00,WUHU216DAVISVP2,2013-08-20 14:25:00,
2013-08-20 09:30:00,71.6,65.8,30.05,North,355,0.0,5.0,82,0.00,,,0.00,WUHU216DAVISVP2,2013-08-20 14:30:00,
2013-08-20 09:35:00,71.5,65.5,30.05,North,360,4.0,5.0,81,0.00,,,0.00,WUHU216DAVISVP2,2013-08-20 14:35:00,
2013-08-20 09:40:00,71.5,65.1,30.05,North,359,1.0,5.0,80,0.00,,,0.00,WUHU216DAVISVP2,2013-08-20 14:40:00,
2013-08-20 09:45:00,71.6,65.2,30.05,North,8,1.0,6.0,80,0.00,,,0.00,WUHU216DAVISVP2,2013-08-20 14:45:00,
2013-08-20 09:50:00,71.8,65.1,30.06,North,6,0.0,6.0,79,0.00,,,0.00,WUHU216DAVISVP2,2013-08-20 14:50:00,
2013-08-20 09:55:00,72.1,65.0,30.05,North,6,1.0,6.0,78,0.00,,,0.00,WUHU216DAVISVP2,2013-08-20 14:55:00,
2013-08-20 10:00:00,72.2,65.4,30.05,North,8,1.0,6.0,79,0.00,,,0.00,WUHU216DAVISVP2,2013-08-20 15:00:00,
2013-08-20 10:05:00,72.1,65.0,30.05,NNE,15,0.0,6.0,78,0.00,,,0.00,WUHU216DAVISVP2,2013-08-20 15:05:00,
2013-08-20 10:10:00,72.3,65.2,30.05,North,3,1.0,7.0,78,0.00,,,0.00,WUHU216DAVISVP2,2013-08-20 15:10:00,
2013-08-20 10:15:00,72.6,65.8,30.06,North,358,0.0,7.0,79,0.00,,,0.00,WUHU216DAVISVP2,2013-08-20 15:15:00,
2013-08-20 10:20:00,72.9,66.1,30.06,North,355,5.0,7.0,79,0.00,,,0.00,WUHU216DAVISVP2,2013-08-20 15:20:00,
2013-08-20 10:25:00,73.2,65.3,30.05,North,357,1.0,7.0,76,0.00,,,0.00,WUHU216DAVISVP2,2013-08-20 15:25:00,
2013-08-20 10:30:00,73.2,65.7,30.05,North,357,0.0,6.0,77,0.00,,,0.00,WUHU216DAVISVP2,2013-08-20 15:30:00,
2013-08-20 10:35:00,73.7,65.5,30.06,North,359,6.0,6.0,75,0.00,,,0.00,WUHU216DAVISVP2,2013-08-20 15:35:00,
2013-08-20 10:40:00,73.7,65.1,30.06,North,9,2.0,6.0,74,0.00,,,0.00,WUHU216DAVISVP2,2013-08-20 15:40:00,
2013-08-20 10:45:00,73.8,65.6,30.06,North,10,2.0,6.0,75,0.00,,,0.00,WUHU216DAVISVP2,2013-08-20 15:45:00,
2013-08-20 10:50:00,73.9,64.9,30.05,North,1,3.0,6.0,73,0.00,,,0.00,WUHU216DAVISVP2,2013-08-20 15:50:00,
2013-08-20 10:55:00,73.7,64.7,30.05,NNE,15,2.0,6.0,73,0.00,,,0.00,WUHU216DAVISVP2,2013-08-20 15:55:00,
2013-08-20 11:00:00,73.8,64.8,30.05,North,1,4.0,6.0,73,0.00,,,0.00,WUHU216DAVISVP2,2013-08-20 16:00:00,
2013-08-20 11:05:00,74.0,63.0,30.05,North,354,5.0,8.0,68,0.00,,,0.00,WUHU216DAVISVP2,2013-08-20 16:05:00,
2013-08-20 11:10:00,74.0,63.7,30.05,ENE,58,4.0,8.0,70,0.00,,,0.00,WUHU216DAVISVP2,2013-08-20 16:10:00,
2013-08-20 11:15:00,73.7,64.7,30.05,ENE,58,3.0,8.0,73,0.00,,,0.00,WUHU216DAVISVP2,2013-08-20 16:15:00,
2013-08-20 11:20:00,73.9,64.5,30.05,NNE,20,2.0,8.0,72,0.00,,,0.00,WUHU216DAVISVP2,2013-08-20 16:20:00,
2013-08-20 11:25:00,73.7,63.1,30.05,NNE,15,3.0,8.0,69,0.00,,,0.00,WUHU216DAVISVP2,2013-08-20 16:25:00,
2013-08-20 11:30:00,74.1,65.1,30.05,North,9,1.0,8.0,73,0.00,,,0.00,WUHU216DAVISVP2,2013-08-20 16:30:00,
2013-08-20 11:35:00,74.5,63.8,30.05,North,8,3.0,8.0,69,0.00,,,0.00,WUHU216DAVISVP2,2013-08-20 16:35:00,
2013-08-20 11:40:00,74.8,62.9,30.05,North,356,6.0,8.0,66,0.00,,,0.00,WUHU216DAVISVP2,2013-08-20 16:40:00,
2013-08-20 11:45:00,75.1,63.1,30.05,NNW,347,5.0,8.0,66,0.00,,,0.00,WUHU216DAVISVP2,2013-08-20 16:45:00,
2013-08-20 11:50:00,75.2,63.7,30.05,NNW,342,3.0,8.0,67,0.00,,,0.00,WUHU216DAVISVP2,2013-08-20 16:50:00,
2013-08-20 11:55:00,74.8,63.8,30.05,NNW,339,1.0,8.0,68,0.00,,,0.00,WUHU216DAVISVP2,2013-08-20 16:55:00,
2013-08-20 12:00:00,74.9,64.6,30.05,NNW,339,0.0,8.0,70,0.00,,,0.00,WUHU216DAVISVP2,2013-08-20 17:00:00,
2013-08-20 12:05:00,74.6,64.0,30.05,North,356,3.0,8.0,69,0.00,,,0.00,WUHU216DAVISVP2,2013-08-20 17:05:00,
2013-08-20 12:10:00,74.8,63.7,30.05,North,350,4.0,6.0,68,0.00,,,0.00,WUHU216DAVISVP2,2013-08-20 17:10:00,
2013-08-20 12:15:00,75.1,64.0,30.04,North,358,3.0,7.0,68,0.00,,,0.00,WUHU216DAVISVP2,2013-08-20 17:15:00,
2013-08-20 12:20:00,75.4,64.3,30.04,North,355,0.0,7.0,68,0.00,,,0.00,WUHU216DAVISVP2,2013-08-20 17:20:00,
2013-08-20 12:25:00,75.2,64.1,30.04,NNE,20,3.0,7.0,68,0.00,,,0.00,WUHU216DAVISVP2,2013-08-20 17:25:00,
2013-08-20 12:30:00,75.4,64.7,30.04,North,358,2.0,8.0,69,0.00,,,0.00,WUHU216DAVISVP2,2013-08-20 17:30:00,
2013-08-20 12:35:00,75.7,64.2,30.04,North,352,4.0,8.0,67,0.00,,,0.00,WUHU216DAVISVP2,2013-08-20 17:35:00,
2013-08-20 12:40:00,75.8,64.3,30.04,North,360,4.0,8.0,67,0.00,,,0.00,WUHU216DAVISVP2,2013-08-20 17:40:00,
2013-08-20 12:45:00,75.9,63.5,30.03,North,358,0.0,8.0,65,0.00,,,0.00,WUHU216DAVISVP2,2013-08-20 17:45:00,
2013-08-20 12:50:00,76.3,63.9,30.03,North,3,1.0,7.0,65,0.00,,,0.00,WUHU216DAVISVP2,2013-08-20 17:50:00,
2013-08-20 12:55:00,76.4,61.7,30.03,North,6,1.0,6.0,60,0.00,,,0.00,WUHU216DAVISVP2,2013-08-20 17:55:00,
2013-08-20 13:00:00,76.5,63.6,30.03,North,6,0.0,6.0,64,0.00,,,0.00,WUHU216DAVISVP2,2013-08-20 18:00:00,
2013-08-20 13:05:00,76.5,62.7,30.03,North,353,4.0,8.0,62,0.00,,,0.00,WUHU216DAVISVP2,2013-08-20 18:05:00,
2013-08-20 13:10:00,75.9,63.1,30.03,North,350,0.0,8.0,64,0.00,,,0.00,WUHU216DAVISVP2,2013-08-20 18:10:00,
2013-08-20 13:15:00,75.7,61.5,30.03,North,350,0.0,8.0,61,0.00,,,0.00,WUHU216DAVISVP2,2013-08-20 18:15:00,
2013-08-20 13:20:00,76.1,61.4,30.03,NE,50,3.0,8.0,60,0.00,,,0.00,WUHU216DAVISVP2,2013-08-20 18:20:00,
2013-08-20 13:25:00,76.2,60.0,30.03,ENE,69,1.0,7.0,57,0.00,,,0.00,WUHU216DAVISVP2,2013-08-20 18:25:00,
2013-08-20 13:30:00,76.4,63.1,30.02,NE,55,3.0,7.0,63,0.00,,,0.00,WUHU216DAVISVP2,2013-08-20 18:30:00,
2013-08-20 13:35:00,76.5,61.8,30.02,NNE,15,0.0,7.0,60,0.00,,,0.00,WUHU216DAVISVP2,2013-08-20 18:35:00,
2013-08-20 13:40:00,76.9,63.6,30.02,NNE,15,0.0,5.0,63,0.00,,,0.00,WUHU216DAVISVP2,2013-08-20 18:40:00,
2013-08-20 13:45:00,77.4,63.6,30.02,North,352,4.0,8.0,62,0.00,,,0.00,WUHU216DAVISVP2,2013-08-20 18:45:00,
2013-08-20 13:50:00,77.4,64.5,30.02,North,2,2.0,10.0,64,0.00,,,0.00,WUHU216DAVISVP2,2013-08-20 18:50:00,
2013-08-20 13:55:00,77.3,63.9,30.02,NNE,25,0.0,10.0,63,0.00,,,0.00,WUHU216DAVISVP2,2013-08-20 18:55:00,
2013-08-20 14:00:00,77.3,63.0,30.02,North,360,4.0,10.0,61,0.00,,,0.00,WUHU216DAVISVP2,2013-08-20 19:00:00,
2013-08-20 14:05:00,77.5,63.6,30.02,North,358,2.0,10.0,62,0.00,,,0.00,WUHU216DAVISVP2,2013-08-20 19:05:00,
2013-08-20 14:10:00,77.4,62.6,30.02,North,5,1.0,8.0,60,0.00,,,0.00,WUHU216DAVISVP2,2013-08-20 19:10:00,
2013-08-20 14:15:00,77.8,63.5,30.02,North,11,3.0,9.0,61,0.00,,,0.00,WUHU216DAVISVP2,2013-08-20 19:15:00,
2013-08-20 14:20:00,77.7,63.4,30.01,NNE,20,2.0,9.0,61,0.00,,,0.00,WUHU216DAVISVP2,2013-08-20 19:20:00,
2013-08-20 14:25:00,78.1,64.7,30.02,North,352,5.0,9.0,63,0.00,,,0.00,WUHU216DAVISVP2,2013-08-20 19:25:00,
2013-08-20 14:30:00,78.1,62.3,30.01,North,352,0.0,9.0,58,0.00,,,0.00,WUHU216DAVISVP2,2013-08-20 19:30:00,
2013-08-20 14:35:00,78.4,63.1,30.01,North,4,1.0,9.0,59,0.00,,,0.00,WUHU216DAVISVP2,2013-08-20 19:35:00,
2013-08-20 14:40:00,78.6,63.3,30.01,NNW,346,5.0,9.0,59,0.00,,,0.00,WUHU216DAVISVP2,2013-08-20 19:40:00,
2013-08-20 14:45:00,78.7,62.4,30.01,NE,46,5.0,8.0,57,0.00,,,0.00,WUHU216DAVISVP2,2013-08-20 19:45:00,
2013-08-20 14:50:00,78.7,64.3,30.01,North,358,7.0,8.0,61,0.00,,,0.00,WUHU216DAVISVP2,2013-08-20 19:50:00,
2013-08-20 14:55:00,78.8,63.4,30.01,North,10,4.0,8.0,59,0.00,,,0.00,WUHU216DAVISVP2,2013-08-20 19:55:00,
2013-08-20 15:00:00,79.4,62.5,30.00,North,10,0.0,8.0,56,0.00,,,0.00,WUHU216DAVISVP2,2013-08-20 20:00:00,
2013-08-20 15:05:00,79.8,63.5,30.00,NNE,20,6.0,8.0,57,0.00,,,0.00,WUHU216DAVISVP2,2013-08-20 20:05:00,
2013-08-20 15:10:00,79.3,64.5,30.00,NNW,345,3.0,8.0,60,0.00,,,0.00,WUHU216DAVISVP2,2013-08-20 20:10:00,
2013-08-20 15:15:00,79.6,63.8,30.00,North,356,5.0,8.0,58,0.00,,,0.00,WUHU216DAVISVP2,2013-08-20 20:15:00,
2013-08-20 15:20:00,80.0,65.1,30.00,North,352,5.0,8.0,60,0.00,,,0.00,WUHU216DAVISVP2,2013-08-20 20:20:00,
2013-08-20 15:25:00,80.1,63.7,30.00,North,351,5.0,8.0,57,0.00,,,0.00,WUHU216DAVISVP2,2013-08-20 20:25:00,
2013-08-20 15:30:00,79.8,63.4,30.00,North,350,0.0,8.0,57,0.00,,,0.00,WUHU216DAVISVP2,2013-08-20 20:30:00,
2013-08-20 15:35:00,79.9,64.0,29.99,NNE,15,0.0,9.0,58,0.00,,,0.00,WUHU216DAVISVP2,2013-08-20 20:35:00,
2013-08-20 15:40:00,80.0,65.1,29.99,NNE,20,3.0,9.0,60,0.00,,,0.00,WUHU216DAVISVP2,2013-08-20 20:40:00,
2013-08-20 15:45:00,80.4,64.0,29.99,NNE,25,0.0,9.0,57,0.00,,,0.00,WUHU216DAVISVP2,2013-08-20 20:45:00,
2013-08-20 15:50:00,80.7,64.8,29.99,NNE,25,2.0,9.0,58,0.00,,,0.00,WUHU216DAVISVP2,2013-08-20 20:50:00,
2013-08-20 15:55:00,81.2,64.2,29.99,NE,49,2.0,9.0,56,0.00,,,0.00,WUHU216DAVISVP2,2013-08-20 20:55:00,
2013-08-20 16:00:00,80.5,65.6,29.99,North,357,8.0,9.0,60,0.00,,,0.00,WUHU216DAVISVP2,2013-08-20 21:00:00,
2013-08-20 16:05:00,80.7,64.3,29.99,North,352,3.0,8.0,57,0.00,,,0.00,WUHU216DAVISVP2,2013-08-20 21:05:00,
2013-08-20 16:10:00,80.9,63.5,29.99,North,354,0.0,8.0,55,0.00,,,0.00,WUHU216DAVISVP2,2013-08-20 21:10:00,
2013-08-20 16:15:00,81.2,64.7,29.99,North,8,1.0,8.0,57,0.00,,,0.00,WUHU216DAVISVP2,2013-08-20 21:15:00,
2013-08-20 16:20:00,81.5,64.0,29.99,NNE,15,0.0,8.0,55,0.00,,,0.00,WUHU216DAVISVP2,2013-08-20 21:20:00,
2013-08-20 16:25:00,81.7,64.2,29.99,ENE,58,2.0,7.0,55,0.00,,,0.00,WUHU216DAVISVP2,2013-08-20 21:25:00,
2013-08-20 16:30:00,81.8,65.3,29.99,NNE,20,2.0,6.0,57,0.00,,,0.00,WUHU216DAVISVP2,2013-08-20 21:30:00,
2013-08-20 16:35:00,82.1,66.1,29.99,North,355,4.0,9.0,58,0.00,,,0.00,WUHU216DAVISVP2,2013-08-20 21:35:00,
2013-08-20 16:40:00,82.4,65.3,29.99,NNW,347,2.0,9.0,56,0.00,,,0.00,WUHU216DAVISVP2,2013-08-20 21:40:00,
2013-08-20 16:45:00,82.5,63.3,29.99,North,357,0.0,9.0,52,0.00,,,0.00,WUHU216DAVISVP2,2013-08-20 21:45:00,
2013-08-20 16:50:00,82.9,64.7,29.99,NNW,335,3.0,7.0,54,0.00,,,0.00,WUHU216DAVISVP2,2013-08-20 21:50:00,
2013-08-20 16:55:00,83.1,65.5,29.98,NNW,348,2.0,7.0,55,0.00,,,0.00,WUHU216DAVISVP2,2013-08-20 21:55:00,
2013-08-20 17:00:00,83.1,66.5,29.99,North,349,2.0,7.0,57,0.00,,,0.00,WUHU216DAVISVP2,2013-08-20 22:00:00,
2013-08-20 17:05:00,83.2,65.6,29.98,North,353,3.0,6.0,55,0.00,,,0.00,WUHU216DAVISVP2,2013-08-20 22:05:00,
2013-08-20 17:10:00,83.3,66.1,29.98,North,354,0.0,6.0,56,0.00,,,0.00,WUHU216DAVISVP2,2013-08-20 22:10:00,
2013-08-20 17:15:00,83.5,66.9,29.98,North,354,1.0,5.0,57,0.00,,,0.00,WUHU216DAVISVP2,2013-08-20 22:15:00,
2013-08-20 17:20:00,83.7,65.5,29.98,North,357,0.0,9.0,54,0.00,,,0.00,WUHU216DAVISVP2,2013-08-20 22:20:00,
2013-08-20 17:25:00,83.6,65.4,29.98,North,360,0.0,9.0,54,0.00,,,0.00,WUHU216DAVISVP2,2013-08-20 22:25:00,
2013-08-20 17:30:00,83.6,67.0,29.98,North,360,3.0,9.0,57,0.00,,,0.00,WUHU216DAVISVP2,2013-08-20 22:30:00,
2013-08-20 17:35:00,83.8,65.1,29.98,North,360,0.0,9.0,53,0.00,,,0.00,WUHU216DAVISVP2,2013-08-20 22:35:00,
2013-08-20 17:40:00,84.2,67.0,29.98,North,3,0.0,5.0,56,0.00,,,0.00,WUHU216DAVISVP2,2013-08-20 22:40:00,
2013-08-20 17:45:00,84.5,68.4,29.98,North,3,0.0,5.0,58,0.00,,,0.00,WUHU216DAVISVP2,2013-08-20 22:45:00,
2013-08-20 17:50:00,84.6,67.4,29.98,North,356,2.0,7.0,56,0.00,,,0.00,WUHU216DAVISVP2,2013-08-20 22:50:00,
2013-08-20 17:55:00,84.4,67.2,29.98,NNW,342,2.0,7.0,56,0.00,,,0.00,WUHU216DAVISVP2,2013-08-20 22:55:00,
2013-08-20 18:00:00,84.3,66.6,29.98,NNW,339,2.0,7.0,55,0.00,,,0.00,WUHU216DAVISVP2,2013-08-20 23:00:00,
2013-08-20 18:05:00,84.1,66.9,29.98,NNW,339,0.0,7.0,56,0.00,,,0.00,WUHU216DAVISVP2,2013-08-20 23:05:00,
2013-08-20 18:10:00,83.8,67.7,29.98,NNW,339,3.0,7.0,58,0.00,,,0.00,WUHU216DAVISVP2,2013-08-20 23:10:00,
2013-08-20 18:15:00,83.6,67.5,29.98,NNW,339,2.0,7.0,58,0.00,,,0.00,WUHU216DAVISVP2,2013-08-20 23:15:00,
2013-08-20 18:20:00,83.4,66.8,29.98,NNW,339,3.0,6.0,57,0.00,,,0.00,WUHU216DAVISVP2,2013-08-20 23:20:00,
2013-08-20 18:25:00,83.3,67.2,29.98,NNW,339,1.0,5.0,58,0.00,,,0.00,WUHU216DAVISVP2,2013-08-20 23:25:00,
2013-08-20 18:30:00,83.1,67.0,29.98,NNW,339,0.0,5.0,58,0.00,,,0.00,WUHU216DAVISVP2,2013-08-20 23:30:00,
2013-08-20 18:35:00,82.8,67.3,29.98,NNW,339,1.0,5.0,59,0.00,,,0.00,WUHU216DAVISVP2,2013-08-20 23:35:00,
2013-08-20 18:40:00,82.6,67.6,29.98,NNW,343,1.0,6.0,60,0.00,,,0.00,WUHU216DAVISVP2,2013-08-20 23:40:00,
2013-08-20 18:45:00,82.6,68.5,29.98,NNW,343,0.0,6.0,62,0.00,,,0.00,WUHU216DAVISVP2,2013-08-20 23:45:00,
2013-08-20 18:50:00,82.6,67.6,29.98,NNW,344,0.0,6.0,60,0.00,,,0.00,WUHU216DAVISVP2,2013-08-20 23:50:00,
2013-08-20 18:55:00,82.6,67.5,29.98,NNW,344,0.0,6.0,60,0.00,,,0.00,WUHU216DAVISVP2,2013-08-20 23:55:00,
2013-08-20 19:00:00,82.5,67.9,29.98,NNW,344,0.0,3.0,61,0.00,,,0.00,WUHU216DAVISVP2,2013-08-21 00:00:00,
2013-08-20 19:05:00,82.2,68.2,29.98,NNW,344,0.0,3.0,62,0.00,,,0.00,WUHU216DAVISVP2,2013-08-21 00:05:00,
2013-08-20 19:10:00,82.0,67.5,29.98,NNW,344,2.0,5.0,61,0.00,,,0.00,WUHU216DAVISVP2,2013-08-21 00:10:00,
2013-08-20 19:15:00,81.5,68.0,29.98,NNW,344,1.0,5.0,63,0.00,,,0.00,WUHU216DAVISVP2,2013-08-21 00:15:00,
2013-08-20 19:20:00,81.2,67.7,29.98,NNW,344,0.0,5.0,63,0.00,,,0.00,WUHU216DAVISVP2,2013-08-21 00:20:00,
2013-08-20 19:25:00,80.9,67.8,29.98,NNW,344,0.0,5.0,64,0.00,,,0.00,WUHU216DAVISVP2,2013-08-21 00:25:00,
2013-08-20 19:30:00,80.5,67.5,29.98,NNW,344,0.0,2.0,64,0.00,,,0.00,WUHU216DAVISVP2,2013-08-21 00:30:00,
2013-08-20 19:35:00,80.2,67.2,29.99,NNW,344,0.0,2.0,64,0.00,,,0.00,WUHU216DAVISVP2,2013-08-21 00:35:00,
2013-08-20 19:40:00,79.8,66.8,29.99,NNW,344,0.0,0.0,64,0.00,,,0.00,WUHU216DAVISVP2,2013-08-21 00:40:00,
2013-08-20 19:45:00,79.3,66.8,29.98,NNW,344,0.0,0.0,65,0.00,,,0.00,WUHU216DAVISVP2,2013-08-21 00:45:00,
2013-08-20 19:50:00,79.0,66.5,29.98,NNW,344,0.0,0.0,65,0.00,,,0.00,WUHU216DAVISVP2,2013-08-21 00:50:00,
2013-08-20 19:55:00,78.6,66.1,29.98,NNW,344,0.0,0.0,65,0.00,,,0.00,WUHU216DAVISVP2,2013-08-21 00:55:00,
2013-08-20 20:00:00,78.2,66.6,29.99,NNW,344,0.0,0.0,67,0.00,,,0.00,WUHU216DAVISVP2,2013-08-21 01:00:00,
2013-08-20 20:05:00,77.9,66.3,29.98,NNW,344,0.0,0.0,67,0.00,,,0.00,WUHU216DAVISVP2,2013-08-21 01:05:00,
2013-08-20 20:10:00,77.5,66.3,29.99,NNW,344,0.0,0.0,68,0.00,,,0.00,WUHU216DAVISVP2,2013-08-21 01:10:00,
2013-08-20 20:15:00,77.1,66.0,29.99,NNW,344,0.0,0.0,68,0.00,,,0.00,WUHU216DAVISVP2,2013-08-21 01:15:00,
2013-08-20 20:19:00,76.7,66.0,29.99,NNW,344,0.0,0.0,69,0.00,,,0.00,WUHU216DAVISVP2,2013-08-21 01:19:00,
2013-08-20 20:24:00,76.3,66.0,29.99,NNW,344,0.0,0.0,70,0.00,,,0.00,WUHU216DAVISVP2,2013-08-21 01:24:00,
2013-08-20 20:29:00,75.8,66.0,29.99,NNW,344,0.0,0.0,71,0.00,,,0.00,WUHU216DAVISVP2,2013-08-21 01:29:00,
2013-08-20 20:34:00,75.3,66.2,29.99,NNW,344,0.0,0.0,73,0.00,,,0.00,WUHU216DAVISVP2,2013-08-21 01:34:00,
2013-08-20 20:39:00,74.9,65.8,29.99,NNW,344,0.0,0.0,73,0.00,,,0.00,WUHU216DAVISVP2,2013-08-21 01:39:00,
2013-08-20 20:44:00,74.5,65.5,29.99,NNW,344,0.0,0.0,73,0.00,,,0.00,WUHU216DAVISVP2,2013-08-21 01:44:00,
2013-08-20 20:49:00,74.3,66.0,29.99,NNW,344,0.0,0.0,75,0.00,,,0.00,WUHU216DAVISVP2,2013-08-21 01:49:00,
2013-08-20 20:54:00,74.0,66.1,29.99,NNW,344,0.0,2.0,76,0.00,,,0.00,WUHU216DAVISVP2,2013-08-21 01:54:00,
2013-08-20 20:59:00,73.8,65.9,30.00,NNW,344,1.0,2.0,76,0.00,,,0.00,WUHU216DAVISVP2,2013-08-21 01:59:00,
2013-08-20 21:04:00,73.4,65.2,30.00,NNW,344,2.0,3.0,75,0.00,,,0.00,WUHU216DAVISVP2,2013-08-21 02:04:00,
2013-08-20 21:09:00,73.3,65.0,30.00,NNW,344,0.0,3.0,75,0.00,,,0.00,WUHU216DAVISVP2,2013-08-21 02:09:00,
2013-08-20 21:14:00,73.2,65.3,30.00,NNW,344,0.0,3.0,76,0.00,,,0.00,WUHU216DAVISVP2,2013-08-21 02:14:00,
2013-08-20 21:19:00,73.0,65.2,30.00,NNW,344,0.0,3.0,76,0.00,,,0.00,WUHU216DAVISVP2,2013-08-21 02:19:00,
2013-08-20 21:24:00,72.9,65.0,30.00,NNW,344,0.0,2.0,76,0.00,,,0.00,WUHU216DAVISVP2,2013-08-21 02:24:00,
2013-08-20 21:29:00,72.8,64.9,30.00,NNW,344,0.0,2.0,76,0.00,,,0.00,WUHU216DAVISVP2,2013-08-21 02:29:00,
2013-08-20 21:34:00,72.7,65.2,30.00,NNW,344,0.0,1.0,77,0.00,,,0.00,WUHU216DAVISVP2,2013-08-21 02:34:00,
2013-08-20 21:39:00,72.5,65.0,30.00,NNW,344,0.0,0.0,77,0.00,,,0.00,WUHU216DAVISVP2,2013-08-21 02:39:00,
2013-08-20 21:44:00,72.4,64.6,30.00,NNW,344,0.0,0.0,76,0.00,,,0.00,WUHU216DAVISVP2,2013-08-21 02:44:00,
2013-08-20 21:49:00,72.3,64.8,30.01,NNW,344,0.0,0.0,77,0.00,,,0.00,WUHU216DAVISVP2,2013-08-21 02:49:00,
2013-08-20 21:54:00,72.2,64.7,30.01,NNW,344,0.0,0.0,77,0.00,,,0.00,WUHU216DAVISVP2,2013-08-21 02:54:00,
2013-08-20 21:59:00,72.0,64.6,30.01,NNW,344,0.0,0.0,77,0.00,,,0.00,WUHU216DAVISVP2,2013-08-21 02:59:00,
2013-08-20 22:04:00,71.8,64.3,30.01,NNW,344,0.0,0.0,77,0.00,,,0.00,WUHU216DAVISVP2,2013-08-21 03:04:00,
2013-08-20 22:09:00,71.6,64.5,30.01,NNW,344,0.0,0.0,78,0.00,,,0.00,WUHU216DAVISVP2,2013-08-21 03:09:00,
2013-08-20 22:14:00,71.4,64.3,30.01,NNW,344,0.0,0.0,78,0.00,,,0.00,WUHU216DAVISVP2,2013-08-21 03:14:00,
2013-08-20 22:19:00,71.2,64.1,30.01,NNW,344,0.0,0.0,78,0.00,,,0.00,WUHU216DAVISVP2,2013-08-21 03:19:00,
2013-08-20 22:24:00,70.9,63.8,30.01,NNW,344,0.0,0.0,78,0.00,,,0.00,WUHU216DAVISVP2,2013-08-21 03:24:00,
2013-08-20 22:29:00,70.8,63.7,30.01,NNW,344,0.0,0.0,78,0.00,,,0.00,WUHU216DAVISVP2,2013-08-21 03:29:00,
2013-08-20 22:34:00,70.6,63.5,30.01,NNW,344,0.0,0.0,78,0.00,,,0.00,WUHU216DAVISVP2,2013-08-21 03:34:00,
2013-08-20 22:39:00,70.5,63.7,30.02,NNW,344,0.0,3.0,79,0.00,,,0.00,WUHU216DAVISVP2,2013-08-21 03:39:00,
2013-08-20 22:44:00,70.4,63.6,30.02,NNW,344,0.0,3.0,79,0.00,,,0.00,WUHU216DAVISVP2,2013-08-21 03:44:00,
2013-08-20 22:49:00,70.1,63.4,30.02,NNW,344,0.0,3.0,79,0.00,,,0.00,WUHU216DAVISVP2,2013-08-21 03:49:00,
2013-08-20 22:54:00,70.0,63.3,30.02,NNW,344,0.0,3.0,79,0.00,,,0.00,WUHU216DAVISVP2,2013-08-21 03:54:00,
2013-08-20 22:59:00,69.8,63.1,30.02,NNW,344,0.0,1.0,79,0.00,,,0.00,WUHU216DAVISVP2,2013-08-21 03:59:00,
2013-08-20 23:01:00,69.8,63.1,30.02,NNW,344,0.0,1.0,79,0.00,,,0.00,WUHU216DAVISVP2,2013-08-21 04:01:00,
2013-08-20 23:06:00,69.7,63.3,30.02,NNW,344,0.0,0.0,80,0.00,,,0.00,WUHU216DAVISVP2,2013-08-21 04:06:00,
2013-08-20 23:11:00,69.5,63.1,30.02,NNW,344,0.0,0.0,80,0.00,,,0.00,WUHU216DAVISVP2,2013-08-21 04:11:00,
2013-08-20 23:16:00,69.3,63.0,30.02,NNW,344,0.0,0.0,80,0.00,,,0.00,WUHU216DAVISVP2,2013-08-21 04:16:00,
2013-08-20 23:21:00,69.2,62.9,30.02,NNW,344,0.0,0.0,80,0.00,,,0.00,WUHU216DAVISVP2,2013-08-21 04:21:00,
2013-08-20 23:26:00,69.1,62.8,30.02,NNW,344,0.0,0.0,80,0.00,,,0.00,WUHU216DAVISVP2,2013-08-21 04:26:00,
2013-08-20 23:31:00,69.0,62.7,30.02,NNW,344,0.0,0.0,80,0.00,,,0.00,WUHU216DAVISVP2,2013-08-21 04:31:00,
2013-08-20 23:36:00,68.9,62.6,30.02,NNW,344,0.0,0.0,80,0.00,,,0.00,WUHU216DAVISVP2,2013-08-21 04:36:00,
2013-08-20 23:41:00,68.8,62.4,30.02,NNW,344,0.0,0.0,80,0.00,,,0.00,WUHU216DAVISVP2,2013-08-21 04:41:00,
2013-08-20 23:46:00,68.7,62.3,30.02,NNW,344,0.0,0.0,80,0.00,,,0.00,WUHU216DAVISVP2,2013-08-21 04:46:00,
2013-08-20 23:51:00,68.6,62.2,30.02,NNW,344,0.0,0.0,80,0.00,,,0.00,WUHU216DAVISVP2,2013-08-21 04:51:00,
2013-08-20 23:56:00,68.5,62.1,30.02,NNW,344,0.0,0.0,80,0.00,,,0.00,WUHU216DAVISVP2,2013-08-21 04:56:00,